DW9615 Weather Reports


time (UTC)temp
C
wind
direction
speed
KPH
gust
KPH
rain 1hr
cm
rain 24hr
cm
rain mn
cm
humidity
%
barometer
mb
20260505223053 21 148 0.0 0.0 0.00 0.00 0.00 69 1014.3
20260505221546 20 175 0.0 0.0 0.00 0.00 0.00 64 1014.2
20260505220040 20 180 0.0 0.0 0.00 0.00 0.00 50 1014.1
20260505214548 18 185 0.0 0.0 0.00 0.00 0.00 32 1014.0
20260505213045 18 238 0.0 0.0 0.00 0.00 0.00 26 1014.0
20260505211524 18 54 0.0 0.0 0.00 0.00 0.00 16 1013.9
20260505210018 17 179 0.0 0.0 0.00 0.00 0.00 8 1013.7
20260505204524 17 170 0.0 0.0 0.00 0.00 0.00 4 1013.6
20260505203011 17 183 0.0 0.0 0.00 0.00 0.00 11 1013.4
20260505201508 17 179 0.0 0.0 0.00 0.00 0.00 16 1013.3
20260505200009 17 180 0.0 0.0 0.00 0.00 0.00 23 1013.2
20260505194508 18 229 0.0 0.0 0.00 0.00 0.00 23 1013.0
20260505193023 17 175 0.0 0.0 0.00 0.00 0.00 17 1013.0
20260505191505 17 170 0.0 0.0 0.00 0.00 0.00 15 1012.8
20260505190011 17 199 0.0 0.0 0.00 0.00 0.00 16 1012.7
20260505184503 17 217 0.0 0.0 0.00 0.00 0.00 24 1012.4
20260505183004 17 218 0.0 0.0 0.00 0.00 0.00 33 1012.3
20260505181601 18 217 0.0 0.0 0.00 0.00 0.00 39 1012.3
20260505180059 18 217 0.0 0.0 0.00 0.00 0.00 44 1012.2
20260505174558 18 217 0.0 0.0 0.00 0.00 0.00 46 1012.3
20260505173056 18 218 0.0 0.0 0.00 0.00 0.00 52 1012.3
20260505171554 18 175 0.0 0.0 0.00 0.00 0.00 59 1012.6
20260505170059 19 187 0.0 0.0 0.00 0.00 0.00 57 1012.7
20260505164549 19 187 0.0 0.0 0.00 0.00 0.00 51 1012.7
20260505163046 18 165 0.0 0.0 0.00 0.00 0.00 29 1012.8
20260505161543 18 175 0.0 0.0 0.00 0.00 0.00 17 1013.0
20260505153037 18 175 0.0 0.0 0.00 0.00 0.00 16 1013.5
20260505151535 18 175 0.0 0.0 0.00 0.00 0.00 18 1013.7
20260505124607 19 165 0.0 0.0 0.00 0.00 0.00 45 1014.6
20260505123110 19 165 0.0 0.0 0.00 0.00 0.00 50 1014.7
20260505121550 19 165 0.0 0.0 0.00 0.00 0.00 58 1014.7
20260505120051 20 165 0.0 0.0 0.00 0.00 0.00 64 1015.0
20260505114552 20 312 0.0 0.0 0.00 0.00 0.00 67 1014.9
20260505113039 20 312 0.0 0.0 0.00 0.00 0.00 69 1014.9
20260505111533 21 315 0.0 0.0 0.00 0.00 0.00 73 1014.9
20260505101519 22 353 0.0 0.0 0.00 0.00 0.00 77 1014.7
20260505100021 22 358 0.0 0.0 0.00 0.00 0.00 77 1014.4
20260505094516 22 35 0.0 0.0 0.00 0.00 0.00 77 1014.3
20260505093016 22 28 0.0 0.0 0.00 0.00 0.00 77 1014.0
20260505091518 22 304 0.0 0.0 0.00 0.00 0.00 77 1013.9
20260505090021 23 314 0.0 0.0 0.00 0.00 0.00 76 1013.7
20260505084517 23 49 0.0 0.0 0.00 0.00 0.00 76 1013.3
20260505083014 23 35 0.0 1.6 0.00 0.00 0.00 74 1013.2
20260505081513 23 27 0.0 0.0 0.00 0.00 0.00 73 1013.1
20260505080016 24 48 0.0 1.6 0.00 0.00 0.00 72 1012.9
20260505074512 25 65 0.0 1.6 0.00 0.00 0.00 69 1012.7
20260505073013 25 60 0.0 4.8 0.00 0.00 0.00 66 1012.7
20260505071503 25 49 0.0 6.4 0.00 0.00 0.00 63 1012.5
20260505070100 26 47 0.0 12.9 0.00 0.00 0.00 60 1012.4
20260505064555 26 38 0.0 14.5 0.00 0.00 0.00 58 1012.1
20260505063053 26 33 0.0 14.5 0.00 0.00 0.00 56 1012.1
20260505061545 27 104 1.6 12.9 0.00 0.00 0.00 54 1011.8
20260505060040 27 29 1.6 11.3 0.00 0.00 0.00 53 1011.7
20260505054537 27 76 4.8 12.9 0.00 0.00 0.00 53 1011.6
20260505053032 28 84 1.6 14.5 0.00 0.00 0.00 52 1011.5
20260505051527 28 143 1.6 11.3 0.00 0.00 0.00 52 1011.5
20260505041516 28 56 3.2 14.5 0.00 0.00 0.00 53 1011.8
20260505040005 28 66 1.6 14.5 0.00 0.00 0.00 52 1011.9
20260505034600 28 72 3.2 12.9 0.00 0.00 0.00 53 1012.2
20260505033057 28 68 1.6 16.1 0.00 0.00 0.00 52 1012.3
20260505031551 28 110 0.0 11.3 0.00 0.00 0.00 54 1012.5
20260505030047 28 33 0.0 14.5 0.00 0.00 0.00 53 1012.6
20260505024542 28 69 1.6 11.3 0.00 0.00 0.00 50 1013.0
20260505023044 28 103 4.8 17.7 0.00 0.00 0.00 53 1013.1
20260505021534 28 68 0.0 8.0 0.00 0.00 0.00 53 1013.5
20260505020034 28 165 0.0 12.9 0.00 0.00 0.00 56 1013.6
20260505014525 28 69 1.6 11.3 0.00 0.00 0.00 55 1014.0
20260505013023 27 69 1.6 12.9 0.00 0.00 0.00 56 1014.3
20260505011524 27 146 0.0 6.4 0.00 0.00 0.00 58 1014.4
20260505010011 27 112 0.0 8.0 0.00 0.00 0.00 61 1014.6
20260505004507 27 330 0.0 0.0 0.00 0.00 0.00 62 1014.8
20260505003003 27 109 0.0 0.0 0.00 0.00 0.00 63 1015.1
20260505001628 26 81 0.0 3.2 0.00 0.00 0.00 66 1015.2
20260505000126 26 78 0.0 3.2 0.00 0.00 0.00 68 1015.1
20260504234606 25 170 0.0 0.0 0.00 0.00 0.00 71 1015.4
20260504233050 25 96 0.0 1.6 0.00 0.00 0.00 74 1015.4
20260504231540 23 127 0.0 1.6 0.00 0.00 0.00 77 1015.3
20260504230035 22 130 0.0 6.4 0.00 0.00 0.00 77 1015.3
20260504224530 22 108 0.0 3.2 0.00 0.00 0.00 77 1015.5